Home   Weather   Barysaw   Past weeks

Flag for Belarus Past Weather in Barysaw, Belarus — Yesterday and Last 2 Weeks

Now
48 °F

Clear.


Feels Like: 48 °F
Forecast: 40 / 54 °F
Wind: No wind

Location: Minsk

Current Time: Sep 25, 2016 at 12:01:33 AM

Latest Report: Sep 24, 2016 at 11:30 PM


Visibility: 5 mi

Pressure: 30.18 "Hg

Humidity: 94%

Dew Point: 46 °F

Location of BarysawLocation

Past Weather in Barysaw — Graph

°F

Barysaw Temperature Yesterday

Maximum temperature yesterday: 55 °F (at 2:30 PM)
Minimum temperature yesterday: 45 °F (at 2:00 AM)
Average temperature yesterday: 49 °F

High & Low Weather Summary for the Past Weeks

 TemperatureHumidityPressure
High81 °F (Sep 12, 2:00 PM)100% (Sep 11, 6:00 AM)30.18 "Hg (Sep 11, 6:00 AM)
Low34 °F (Sep 15, 6:30 AM)43% (Sep 14, 4:30 PM)29.89 "Hg (Sep 20, 1:30 PM)
Average53 °F81%30.04 "Hg
* Reported Sep 9 11:00 PM — Sep 24 11:00 PM, Barysaw, Weather by CustomWeather, © 2016

Note: Actual official high and low records may vary slightly from our data, if they occured in-between our weather recording intervals... More about our weather records

Advertising

Barysaw Weather History for the Previous 24 Hours

Scroll right to see more
 ConditionsComfort  
Time TempWeatherWind HumidityBarometerVisibility
11:00 PM
Sat, Sep 24
46 °FFog.No wind100%30.18 "Hg3 mi
10:30 PM46 °FFog.No wind100%30.18 "Hg3 mi
10:00 PM46 °FLight fog.No wind100%30.18 "Hg4 mi
9:30 PM46 °FFog.No wind100%30.15 "Hg2 mi
9:00 PM46 °FFog.No wind100%30.15 "Hg2 mi
8:30 PM50 °FFog.No wind94%30.15 "Hg3 mi
8:00 PM48 °FSunny.No wind100%30.15 "Hg10 mi
7:56 PM50 °FClear.No wind94%30.15 "HgN/A
7:30 PM50 °FFog.No wind94%30.15 "HgN/A
7:00 PM52 °FFog.No wind94%30.12 "HgN/A
6:30 PM54 °FScattered clouds.3 mph88%30.12 "HgN/A
6:00 PM55 °FBroken clouds.3 mph82%30.12 "HgN/A
5:30 PM54 °FBroken clouds.8 mph88%30.12 "HgN/A
5:00 PM55 °FBroken clouds.3 mph82%30.12 "HgN/A
4:53 PM54 °FBroken clouds.3 mph94%30.12 "HgN/A
4:30 PM54 °FBroken clouds.6 mph94%30.12 "HgN/A
4:00 PM54 °FBroken clouds.8 mph94%30.12 "HgN/A
3:30 PM54 °FBroken clouds.6 mph94%30.09 "HgN/A
3:00 PM55 °FSprinkles. Partly sunny.3 mph88%30.09 "Hg6 mi
2:30 PM55 °FPartly sunny.3 mph88%30.09 "HgN/A
2:00 PM54 °FOvercast.6 mph94%30.09 "HgN/A
1:30 PM54 °FOvercast.6 mph88%30.09 "Hg6 mi
1:00 PM52 °FLow clouds.3 mph94%30.09 "Hg5 mi
12:30 PM52 °FLow clouds.6 mph94%30.09 "Hg5 mi
12:00 PM50 °FLow clouds.3 mph100%30.09 "Hg4 mi
11:30 AM50 °FLow clouds.3 mph100%30.09 "Hg4 mi
11:00 AM50 °FFog.3 mph100%30.09 "Hg3 mi
10:56 AM50 °FFog.6 mph94%30.09 "Hg3 mi
10:30 AM50 °FFog.6 mph94%30.09 "Hg2 mi
10:02 AM50 °FLight rain. Fog.8 mph94%30.09 "Hg1 mi
9:30 AM48 °FLight rain. Fog.6 mph100%30.07 "Hg3 mi
9:00 AM48 °FLow clouds.6 mph94%30.07 "Hg4 mi
8:30 AM48 °FFog.3 mph94%30.09 "Hg3 mi
8:00 AM46 °FPartly sunny.6 mph100%30.07 "Hg4 mi
7:48 AM46 °FPartly cloudy.3 mph100%30.07 "Hg4 mi
7:30 AM46 °FPassing clouds.6 mph100%30.07 "Hg5 mi
7:00 AM46 °FLight rain. Clear.6 mph93%30.07 "Hg5 mi
6:30 AM46 °FPassing clouds.3 mph93%30.07 "HgN/A
6:00 AM45 °FClear.6 mph100%30.07 "Hg10 mi
5:30 AM45 °FClear.6 mph100%30.07 "Hg10 mi
5:00 AM45 °FClear.6 mph93%30.07 "Hg10 mi
4:30 AM45 °FClear.6 mph93%30.07 "Hg10 mi
4:00 AM45 °FClear.6 mph93%30.07 "Hg10 mi
3:30 AM45 °FPassing clouds.6 mph93%30.07 "HgN/A
3:00 AM45 °FClear.6 mph93%30.07 "Hg10 mi
2:30 AM45 °FClear.6 mph93%30.09 "Hg10 mi
2:00 AM45 °FClear.6 mph93%30.07 "Hg10 mi
1:30 AM46 °FPassing clouds.6 mph87%30.07 "HgN/A
1:00 AM46 °FPassing clouds.6 mph93%30.07 "HgN/A
12:30 AM46 °FPassing clouds.3 mph93%30.07 "HgN/A
12:00 AM46 °FClear.3 mph93%30.07 "Hg10 mi
Weather by CustomWeather, © 2016

See weather overviewHow to use our weather pages